| time (UTC) | temp C | wind direction | speed KPH | gust KPH | rain 1hr cm | rain 24hr cm | rain mn cm | humidity % | barometer mb |
| 20260509024535 | 16 | 236 | 1.6 | 8.0 | 0.00 | 0.00 | 0.00 | 53 | 1009.3 |
| 20260509023036 | 16 | 236 | 1.6 | 8.0 | 0.00 | 0.00 | 0.00 | 53 | 1009.3 |
| 20260509021534 | 16 | 241 | 1.6 | 3.2 | 0.00 | 0.00 | 0.00 | 55 | 1009.2 |
| 20260509020043 | 16 | 240 | 1.6 | 3.2 | 0.00 | 0.00 | 0.00 | 54 | 1009.2 |
| 20260509014541 | 17 | 238 | 1.6 | 4.8 | 0.00 | 0.00 | 0.00 | 54 | 1009.2 |
| 20260509013036 | 17 | 232 | 0.0 | 3.2 | 0.00 | 0.00 | 0.00 | 54 | 1009.0 |
| 20260509011534 | 17 | 254 | 1.6 | 4.8 | 0.00 | 0.00 | 0.00 | 53 | 1009.0 |
| 20260509010043 | 17 | 235 | 1.6 | 9.7 | 0.00 | 0.00 | 0.00 | 51 | 1009.1 |
| 20260509004533 | 17 | 251 | 1.6 | 6.4 | 0.00 | 0.00 | 0.00 | 51 | 1008.9 |
| 20260509003034 | 18 | 264 | 3.2 | 6.4 | 0.00 | 0.00 | 0.00 | 51 | 1008.9 |
| 20260509001532 | 18 | 250 | 1.6 | 8.0 | 0.00 | 0.00 | 0.00 | 50 | 1008.8 |
| 20260509000034 | 18 | 251 | 3.2 | 8.0 | 0.00 | 0.00 | 0.00 | 50 | 1008.9 |
| 20260508234533 | 18 | 250 | 4.8 | 11.3 | 0.00 | 0.00 | 0.00 | 49 | 1008.9 |
| 20260508233035 | 18 | 237 | 3.2 | 6.4 | 0.00 | 0.00 | 0.00 | 51 | 1008.9 |
| 20260508231531 | 18 | 260 | 3.2 | 6.4 | 0.00 | 0.00 | 0.00 | 49 | 1009.0 |
| 20260508230030 | 19 | 259 | 3.2 | 11.3 | 0.00 | 0.00 | 0.00 | 49 | 1008.8 |
| 20260508224536 | 19 | 267 | 4.8 | 11.3 | 0.00 | 0.00 | 0.00 | 47 | 1008.8 |
| 20260508223035 | 19 | 265 | 4.8 | 19.3 | 0.00 | 0.00 | 0.00 | 47 | 1008.8 |
| 20260508221535 | 20 | 241 | 6.4 | 12.9 | 0.00 | 0.00 | 0.00 | 45 | 1008.7 |
| 20260508220107 | 20 | 230 | 3.2 | 16.1 | 0.00 | 0.00 | 0.00 | 47 | 1008.4 |
| 20260508214534 | 20 | 283 | 8.0 | 17.7 | 0.00 | 0.00 | 0.00 | 45 | 1008.7 |
| 20260508213038 | 21 | 225 | 8.0 | 19.3 | 0.00 | 0.00 | 0.00 | 41 | 1008.6 |
| 20260508211541 | 22 | 281 | 9.7 | 22.5 | 0.00 | 0.00 | 0.00 | 45 | 1008.8 |
| 20260508210036 | 21 | 259 | 8.0 | 17.7 | 0.00 | 0.00 | 0.00 | 44 | 1009.1 |
| 20260508204535 | 22 | 319 | 8.0 | 16.1 | 0.00 | 0.00 | 0.00 | 42 | 1009.2 |
| 20260508203033 | 21 | 290 | 8.0 | 19.3 | 0.00 | 0.00 | 0.00 | 44 | 1009.6 |
| 20260508201534 | 20 | 293 | 6.4 | 19.3 | 0.00 | 0.00 | 0.00 | 43 | 1009.9 |
| 20260508200036 | 21 | 245 | 9.7 | 17.7 | 0.00 | 0.00 | 0.00 | 41 | 1010.1 |
| 20260508194539 | 21 | 223 | 6.4 | 25.7 | 0.00 | 0.00 | 0.00 | 42 | 1010.2 |
| 20260508193035 | 22 | 239 | 6.4 | 24.1 | 0.00 | 0.00 | 0.00 | 41 | 1010.3 |
| 20260508191534 | 22 | 250 | 6.4 | 20.9 | 0.00 | 0.00 | 0.00 | 41 | 1010.4 |
| 20260508190043 | 23 | 252 | 8.0 | 19.3 | 0.00 | 0.00 | 0.00 | 43 | 1010.5 |
| 20260508184543 | 22 | 261 | 6.4 | 19.3 | 0.00 | 0.00 | 0.00 | 43 | 1010.7 |
| 20260508183035 | 21 | 271 | 12.9 | 22.5 | 0.00 | 0.00 | 0.00 | 42 | 1011.2 |
| 20260508181546 | 21 | 249 | 11.3 | 27.4 | 0.00 | 0.00 | 0.00 | 40 | 1011.5 |
| 20260508180034 | 22 | 256 | 9.7 | 24.1 | 0.00 | 0.00 | 0.00 | 38 | 1011.5 |
| 20260508174540 | 21 | 262 | 11.3 | 22.5 | 0.00 | 0.00 | 0.00 | 41 | 1011.6 |
| 20260508173033 | 21 | 170 | 6.4 | 24.1 | 0.00 | 0.00 | 0.00 | 46 | 1011.8 |
| 20260508171532 | 20 | 238 | 8.0 | 32.2 | 0.00 | 0.00 | 0.00 | 45 | 1012.2 |
| 20260508170036 | 19 | 252 | 9.7 | 22.5 | 0.00 | 0.00 | 0.00 | 43 | 1012.6 |
| 20260508164535 | 18 | 223 | 9.7 | 25.7 | 0.00 | 0.00 | 0.00 | 48 | 1012.8 |
| 20260508163038 | 18 | 249 | 11.3 | 24.1 | 0.00 | 0.00 | 0.00 | 45 | 1013.2 |
| 20260508161536 | 17 | 249 | 11.3 | 25.7 | 0.00 | 0.00 | 0.00 | 48 | 1013.3 |
| 20260508160036 | 17 | 269 | 8.0 | 25.7 | 0.00 | 0.00 | 0.00 | 49 | 1013.3 |
| 20260508154536 | 17 | 250 | 8.0 | 24.1 | 0.00 | 0.00 | 0.00 | 50 | 1013.5 |
| 20260508153036 | 16 | 194 | 9.7 | 17.7 | 0.00 | 0.00 | 0.00 | 53 | 1013.8 |
| 20260508151536 | 16 | 233 | 6.4 | 24.1 | 0.00 | 0.00 | 0.00 | 54 | 1014.0 |
| 20260508150035 | 16 | 236 | 9.7 | 25.7 | 0.00 | 0.00 | 0.00 | 54 | 1014.2 |
| 20260508144535 | 15 | 229 | 8.0 | 20.9 | 0.00 | 0.00 | 0.00 | 55 | 1014.2 |
| 20260508143030 | 15 | 223 | 6.4 | 22.5 | 0.00 | 0.00 | 0.00 | 56 | 1014.3 |
| 20260508141535 | 13 | 295 | 6.4 | 14.5 | 0.00 | 0.00 | 0.00 | 59 | 1014.4 |
| 20260508140038 | 12 | 252 | 9.7 | 17.7 | 0.00 | 0.00 | 0.00 | 60 | 1014.5 |
| 20260508134542 | 12 | 256 | 4.8 | 14.5 | 0.00 | 0.00 | 0.00 | 64 | 1014.6 |
| 20260508133035 | 11 | 246 | 8.0 | 19.3 | 0.00 | 0.00 | 0.00 | 64 | 1014.6 |
| 20260508131534 | 10 | 260 | 4.8 | 16.1 | 0.00 | 0.00 | 0.00 | 65 | 1014.7 |
| 20260508130035 | 10 | 266 | 3.2 | 8.0 | 0.00 | 0.00 | 0.00 | 68 | 1014.6 |
| 20260508124535 | 9 | 245 | 6.4 | 11.3 | 0.00 | 0.00 | 0.00 | 68 | 1014.4 |
| 20260508123035 | 9 | 233 | 3.2 | 11.3 | 0.00 | 0.00 | 0.00 | 69 | 1014.3 |
| 20260508121539 | 8 | 268 | 6.4 | 14.5 | 0.00 | 0.00 | 0.00 | 67 | 1014.1 |
| 20260508120035 | 8 | 225 | 4.8 | 9.7 | 0.00 | 0.00 | 0.00 | 69 | 1014.2 |
| 20260508114546 | 7 | 258 | 3.2 | 4.8 | 0.00 | 0.00 | 0.00 | 72 | 1014.1 |
| 20260508113040 | 6 | 231 | 1.6 | 3.2 | 0.00 | 0.00 | 0.00 | 75 | 1013.9 |
| 20260508111541 | 6 | 248 | 1.6 | 3.2 | 0.00 | 0.00 | 0.00 | 76 | 1013.8 |
| 20260508110034 | 6 | 233 | 1.6 | 3.2 | 0.00 | 0.00 | 0.00 | 75 | 1013.7 |
| 20260508104532 | 6 | 240 | 1.6 | 3.2 | 0.00 | 0.00 | 0.00 | 76 | 1013.6 |
| 20260508103037 | 6 | 238 | 0.0 | 3.2 | 0.00 | 0.00 | 0.00 | 74 | 1013.6 |
| 20260508101535 | 7 | 231 | 1.6 | 8.0 | 0.00 | 0.00 | 0.00 | 72 | 1013.6 |
| 20260508100035 | 7 | 246 | 1.6 | 3.2 | 0.00 | 0.00 | 0.00 | 72 | 1013.6 |
| 20260508094546 | 7 | 238 | 1.6 | 3.2 | 0.00 | 0.00 | 0.00 | 72 | 1013.5 |
| 20260508093035 | 7 | 241 | 1.6 | 3.2 | 0.00 | 0.00 | 0.00 | 72 | 1013.6 |
| 20260508091542 | 7 | 242 | 1.6 | 4.8 | 0.00 | 0.00 | 0.00 | 71 | 1013.5 |
| 20260508090038 | 7 | 231 | 1.6 | 4.8 | 0.00 | 0.00 | 0.00 | 70 | 1013.6 |
| 20260508084534 | 7 | 248 | 1.6 | 3.2 | 0.00 | 0.00 | 0.00 | 70 | 1013.6 |
| 20260508083035 | 7 | 237 | 1.6 | 3.2 | 0.00 | 0.00 | 0.00 | 70 | 1013.5 |
| 20260508081557 | 7 | 247 | 0.0 | 3.2 | 0.00 | 0.00 | 0.00 | 69 | 1013.5 |
| 20260508080033 | 7 | 241 | 1.6 | 6.4 | 0.00 | 0.00 | 0.00 | 69 | 1013.5 |
| 20260508074534 | 8 | 236 | 1.6 | 6.4 | 0.00 | 0.00 | 0.00 | 67 | 1013.6 |
| 20260508073030 | 8 | 250 | 1.6 | 6.4 | 0.00 | 0.00 | 0.00 | 67 | 1013.4 |
| 20260508071542 | 8 | 255 | 3.2 | 4.8 | 0.00 | 0.00 | 0.00 | 67 | 1013.4 |
| 20260508070035 | 8 | 238 | 1.6 | 8.0 | 0.00 | 0.00 | 0.00 | 67 | 1013.6 |
| 20260508064534 | 8 | 239 | 1.6 | 3.2 | 0.00 | 0.00 | 0.00 | 66 | 1014.0 |
| 20260508063046 | 8 | 242 | 1.6 | 4.8 | 0.00 | 0.00 | 0.00 | 66 | 1014.1 |
| 20260508061535 | 8 | 229 | 3.2 | 8.0 | 0.00 | 0.00 | 0.00 | 66 | 1014.2 |
| 20260508060037 | 8 | 238 | 3.2 | 4.8 | 0.00 | 0.00 | 0.00 | 64 | 1014.3 |
| 20260508054535 | 8 | 234 | 1.6 | 8.0 | 0.00 | 0.00 | 0.00 | 64 | 1014.3 |
| 20260508053039 | 8 | 236 | 3.2 | 8.0 | 0.00 | 0.00 | 0.00 | 64 | 1014.3 |
| 20260508051536 | 8 | 227 | 3.2 | 8.0 | 0.00 | 0.00 | 0.00 | 62 | 1014.3 |
| 20260508050036 | 8 | 246 | 3.2 | 6.4 | 0.00 | 0.00 | 0.00 | 63 | 1014.1 |
| 20260508044534 | 9 | 221 | 3.2 | 6.4 | 0.00 | 0.00 | 0.00 | 60 | 1014.2 |
| 20260508043034 | 9 | 240 | 3.2 | 6.4 | 0.00 | 0.00 | 0.00 | 59 | 1014.2 |
| 20260508041535 | 8 | 232 | 1.6 | 3.2 | 0.00 | 0.00 | 0.00 | 60 | 1014.1 |
| 20260508040040 | 8 | 223 | 1.6 | 3.2 | 0.00 | 0.00 | 0.00 | 60 | 1014.0 |
| 20260508034535 | 9 | 235 | 0.0 | 3.2 | 0.00 | 0.00 | 0.00 | 60 | 1014.2 |
| 20260508033034 | 8 | 240 | 0.0 | 3.2 | 0.00 | 0.00 | 0.00 | 61 | 1014.2 |
| 20260508031536 | 8 | 238 | 0.0 | 3.2 | 0.00 | 0.00 | 0.00 | 63 | 1014.2 |
| 20260508030034 | 8 | 0 | 0.0 | 3.2 | 0.00 | 0.00 | 0.00 | 67 | 1014.2 |